| time (UTC) | temp F | wind direction | speed knots | gust knots | rain 1hr in | rain 24hr in | rain mn in | humidity % | barometer mb |
| 20260506123049 | 0 | 0.0 | 0.0 | 0.00 | 0.00 | 0.00 | 1015.3 | ||
| 20260506121549 | 0 | 0.0 | 0.0 | 0.00 | 0.00 | 0.00 | 1015.1 | ||
| 20260506120051 | 0 | 0.0 | 0.0 | 0.00 | 0.00 | 0.00 | 1015.3 | ||
| 20260506114554 | 0 | 0.0 | 0.0 | 0.00 | 0.00 | 0.00 | 1014.9 | ||
| 20260506113048 | 0 | 0.0 | 0.0 | 0.00 | 0.00 | 0.00 | 1014.9 | ||
| 20260506111610 | 63 | 0 | 0.0 | 0.0 | 0.00 | 0.00 | 0.00 | 91 | 1014.9 |
| 20260506110055 | 63 | 0 | 0.0 | 0.0 | 0.00 | 0.00 | 0.00 | 91 | 1014.4 |
| 20260506104551 | 63 | 0 | 0.0 | 0.0 | 0.00 | 0.00 | 0.00 | 91 | 1014.0 |
| 20260506103049 | 62 | 0 | 0.0 | 0.0 | 0.00 | 0.00 | 0.00 | 91 | 1013.9 |
| 20260506101551 | 62 | 0 | 0.0 | 0.0 | 0.00 | 0.00 | 0.00 | 91 | 1013.8 |
| 20260506100050 | 62 | 0 | 0.0 | 0.0 | 0.00 | 0.00 | 0.00 | 91 | 1013.8 |
| 20260506094547 | 62 | 0 | 0.0 | 0.0 | 0.00 | 0.00 | 0.00 | 91 | 1013.6 |
| 20260506093059 | 62 | 0 | 0.0 | 0.0 | 0.00 | 0.00 | 0.00 | 90 | 1013.5 |
| 20260506091552 | 62 | 0 | 0.0 | 0.0 | 0.00 | 0.00 | 0.00 | 90 | 1013.6 |
| 20260506090042 | 62 | 0 | 0.0 | 0.0 | 0.00 | 0.00 | 0.00 | 89 | 1013.5 |
| 20260506084548 | 62 | 0 | 0.0 | 0.0 | 0.00 | 0.00 | 0.00 | 88 | 1013.4 |
| 20260506083107 | 62 | 0 | 0.0 | 0.0 | 0.00 | 0.00 | 0.00 | 88 | 1013.6 |
| 20260506081551 | 62 | 0 | 0.0 | 0.0 | 0.00 | 0.00 | 0.00 | 87 | 1013.8 |
| 20260506073051 | 61 | 0 | 0.0 | 0.0 | 0.00 | 0.00 | 0.00 | 85 | 1014.0 |
| 20260506071552 | 61 | 0 | 0.0 | 0.0 | 0.00 | 0.00 | 0.00 | 83 | 1014.2 |
| 20260506061547 | 63 | 0 | 0.0 | 0.0 | 0.00 | 0.00 | 0.00 | 76 | 1014.0 |
| 20260506044546 | 63 | 0 | 0.0 | 0.0 | 0.00 | 0.00 | 0.00 | 73 | 1014.3 |
| 20260506043049 | 63 | 255 | 0.0 | 0.0 | 0.00 | 0.00 | 0.00 | 71 | 1013.9 |
| 20260506041546 | 63 | 0 | 0.0 | 0.0 | 0.00 | 0.00 | 0.00 | 70 | 1014.1 |
| 20260506040050 | 63 | 0 | 0.0 | 0.0 | 0.00 | 0.00 | 0.00 | 68 | 1014.0 |
| 20260506034557 | 63 | 0 | 0.0 | 0.0 | 0.00 | 0.00 | 0.00 | 68 | 1014.6 |
| 20260506033046 | 63 | 0 | 0.0 | 0.0 | 0.00 | 0.00 | 0.00 | 69 | 1014.4 |
| 20260506031549 | 63 | 0 | 0.0 | 0.0 | 0.00 | 0.00 | 0.00 | 68 | 1014.2 |
| 20260506030052 | 64 | 0 | 0.0 | 0.9 | 0.00 | 0.00 | 0.00 | 68 | 1013.9 |
| 20260506024559 | 64 | 0 | 0.0 | 0.9 | 0.00 | 0.00 | 0.00 | 67 | 1014.0 |
| 20260506023051 | 65 | 0 | 0.0 | 0.9 | 0.00 | 0.00 | 0.00 | 67 | 1014.2 |
| 20260506021544 | 65 | 0 | 0.0 | 0.0 | 0.00 | 0.00 | 0.00 | 64 | 1014.4 |
| 20260506020105 | 65 | 0 | 0.0 | 0.0 | 0.00 | 0.00 | 0.00 | 62 | 1014.1 |
| 20260506014557 | 66 | 0 | 0.0 | 0.0 | 0.00 | 0.00 | 0.00 | 62 | 1014.1 |
| 20260506013045 | 67 | 0 | 0.0 | 0.0 | 0.00 | 0.00 | 0.00 | 60 | 1014.3 |
| 20260506011617 | 68 | 0 | 0.0 | 0.0 | 0.00 | 0.00 | 0.00 | 58 | 1014.0 |
| 20260506010047 | 69 | 0 | 0.0 | 0.0 | 0.00 | 0.00 | 0.00 | 56 | 1014.0 |
| 20260506004601 | 69 | 0 | 0.0 | 0.0 | 0.00 | 0.00 | 0.00 | 54 | 1014.1 |
| 20260506003046 | 70 | 0 | 0.0 | 0.0 | 0.00 | 0.00 | 0.00 | 53 | 1014.0 |
| 20260506001549 | 72 | 0 | 0.0 | 0.0 | 0.00 | 0.00 | 0.00 | 50 | 1013.9 |
| 20260506000114 | 73 | 0 | 0.0 | 0.0 | 0.00 | 0.00 | 0.00 | 47 | 1013.8 |
| 20260505234551 | 74 | 0 | 0.0 | 0.9 | 0.00 | 0.00 | 0.00 | 45 | 1013.8 |
| 20260505233056 | 75 | 0 | 0.0 | 0.9 | 0.00 | 0.00 | 0.00 | 45 | 1013.7 |
| 20260505231609 | 75 | 149 | 0.0 | 2.6 | 0.00 | 0.00 | 0.00 | 44 | 1013.6 |
| 20260505230104 | 76 | 162 | 0.0 | 1.7 | 0.00 | 0.00 | 0.00 | 44 | 1013.4 |
| 20260505224557 | 77 | 0 | 0.0 | 3.5 | 0.00 | 0.00 | 0.00 | 44 | 1013.2 |
| 20260505223048 | 79 | 120 | 0.0 | 1.7 | 0.00 | 0.00 | 0.00 | 43 | 1013.5 |
| 20260505221556 | 82 | 0 | 0.0 | 2.6 | 0.00 | 0.00 | 0.00 | 39 | 1013.3 |
| 20260505220048 | 83 | 228 | 0.0 | 0.9 | 0.00 | 0.00 | 0.00 | 37 | 1013.4 |
| 20260505214543 | 83 | 106 | 0.9 | 2.6 | 0.00 | 0.00 | 0.00 | 37 | 1013.5 |
| 20260505213045 | 84 | 0 | 0.0 | 0.9 | 0.00 | 0.00 | 0.00 | 38 | 1013.7 |
| 20260505211548 | 83 | 231 | 0.9 | 2.6 | 0.00 | 0.00 | 0.00 | 38 | 1013.8 |
| 20260505210049 | 85 | 115 | 0.0 | 2.6 | 0.00 | 0.00 | 0.00 | 36 | 1013.8 |
| 20260505204552 | 85 | 327 | 0.0 | 3.5 | 0.00 | 0.00 | 0.00 | 39 | 1013.8 |
| 20260505203059 | 84 | 274 | 0.0 | 2.6 | 0.00 | 0.00 | 0.00 | 39 | 1013.9 |
| 20260505201550 | 84 | 283 | 0.9 | 3.5 | 0.00 | 0.00 | 0.00 | 39 | 1014.1 |
| 20260505200049 | 86 | 155 | 0.0 | 3.5 | 0.00 | 0.00 | 0.00 | 39 | 1014.2 |
| 20260505194603 | 85 | 0 | 0.9 | 3.5 | 0.00 | 0.00 | 0.00 | 41 | 1014.3 |
| 20260505193052 | 84 | 247 | 0.0 | 2.6 | 0.00 | 0.00 | 0.00 | 39 | 1014.6 |
| 20260505191603 | 83 | 105 | 0.0 | 4.3 | 0.00 | 0.00 | 0.00 | 43 | 1014.8 |
| 20260505190051 | 82 | 269 | 1.7 | 4.3 | 0.00 | 0.00 | 0.00 | 40 | 1015.2 |
| 20260505184549 | 82 | 0 | 0.0 | 2.6 | 0.00 | 0.00 | 0.00 | 44 | 1015.1 |
| 20260505183045 | 80 | 0 | 0.0 | 3.5 | 0.00 | 0.00 | 0.00 | 45 | 1015.4 |
| 20260505181545 | 81 | 340 | 0.9 | 2.6 | 0.00 | 0.00 | 0.00 | 44 | 1016.0 |
| 20260505180049 | 79 | 257 | 0.9 | 3.5 | 0.00 | 0.00 | 0.00 | 44 | 1016.1 |
| 20260505174550 | 80 | 277 | 0.9 | 3.5 | 0.00 | 0.00 | 0.00 | 47 | 1016.3 |
| 20260505173106 | 80 | 129 | 0.0 | 4.3 | 0.00 | 0.00 | 0.00 | 45 | 1016.2 |
| 20260505171618 | 79 | 258 | 0.9 | 2.6 | 0.00 | 0.00 | 0.00 | 46 | 1016.3 |
| 20260505170052 | 78 | 229 | 0.9 | 2.6 | 0.00 | 0.00 | 0.00 | 48 | 1016.4 |
| 20260505164549 | 78 | 127 | 0.9 | 3.5 | 0.00 | 0.00 | 0.00 | 49 | 1016.3 |
| 20260505163050 | 78 | 281 | 1.7 | 2.6 | 0.00 | 0.00 | 0.00 | 48 | 1016.3 |
| 20260505161555 | 77 | 49 | 0.0 | 3.5 | 0.00 | 0.00 | 0.00 | 50 | 1016.6 |
| 20260505153055 | 74 | 137 | 0.9 | 1.7 | 0.00 | 0.00 | 0.00 | 57 | 1017.2 |
| 20260505151553 | 73 | 297 | 0.0 | 1.7 | 0.00 | 0.00 | 0.00 | 57 | 1017.4 |
| 20260505150109 | 74 | 112 | 0.0 | 0.9 | 0.00 | 0.00 | 0.00 | 56 | 1017.1 |
| 20260505124554 | 60 | 245 | 0.0 | 1.7 | 0.00 | 0.00 | 0.00 | 82 | 1015.7 |